Tracking 30990 objects as of 8-Jul-2025
HD Live streaming from Space Station
objects crossing your sky now

OBJECT A

Track OBJECT A now!
10-day predictions


NORAD ID: 52716
Int'l Code: 2022-056A
Perigee: 872.0 km
Apogee: 900.4 km
Inclination: 86.0 °
Period: 102.5 minutes
Semi major axis: 7257 km
RCS: Unknown
Launch date: May 20, 2022
Source: People's Republic of China (PRC)
Launch site: Jiuquan Satellite Launch Center, China (JSC)

Note: This is a ROCKET BODY
Your satellite tracking list
Your tracking list is empty




NASA's NSSDC Master Catalog

Two Line Element Set (TLE):
1 52716U 22056A   25189.21285095  .00000147  00000-0  80715-4 0  9990
2 52716  86.0061 175.4650 0019553  14.2357 345.9368 14.04263804160611
Source of the keplerian elements: AFSPC